Location: East-View Observatory
(46.8144°N, 92.0597°W)
Time: 18:40:21
(UTC-05:00)

Tiangong 2 - Visible Passes

Search period start: 21 May 2019 00:00
Search period end: 31 May 2019 00:00
Orbit: 379 x 387 km, 42.8° (Epoch: 21 May)

Date Brightness Start Highest point End Pass type
(mag) Time Alt. Az. Time Alt. Az. Time Alt. Az.
21 May 1.7 22:42:17 10° WSW 22:44:55 36° S 22:44:55 36° S visible
22 May 1.9 21:42:28 10° SW 21:45:18 31° SSE 21:47:55 11° ESE visible
22 May 2.9 23:18:45 10° WSW 23:20:07 21° WSW 23:20:07 21° WSW visible
23 May 1.6 22:18:48 10° WSW 22:21:45 39° S 22:22:55 27° SE visible
24 May 1.7 21:18:54 10° WSW 21:21:49 36° S 21:24:45 10° ESE visible
24 May 2.1 22:55:21 10° WSW 22:57:47 30° SSW 22:57:47 30° SSW visible
25 May 1.7 21:55:21 10° WSW 21:58:17 37° S 22:00:22 16° ESE visible
25 May 3.7 23:32:15 10° WSW 23:32:33 12° WSW 23:32:33 12° WSW visible
26 May 2.3 22:32:00 10° WSW 22:34:40 25° SSW 22:35:07 24° S visible
27 May 2.0 21:31:54 10° WSW 21:34:45 32° S 21:37:36 10° SE visible
27 May 3.6 23:09:22 10° WSW 23:09:49 11° SW 23:09:49 11° SW visible
28 May 2.8 22:08:46 10° WSW 22:11:05 19° SSW 22:12:20 15° S visible
30 May 3.4 21:45:48 10° WSW 21:47:24 13° SSW 21:49:01 10° S visible
